Location: Huntsville
(41.2590°N, 111.7678°W)
Time: 20:36:53
(UTC+00:00)

Explorer 7 - Pass Details

Date: 18 June 2021
Orbit: 484 x 676 km, 50.3° (Epoch: 30 July)

Event Time Altitude Azimuth Distance (km) Brightness Sun altitude
Rises 04:25:00 0° 221° (SW) 3,010 10.5 -12.6°
Reaches altitude 10° 04:27:24 10° 217° (SW) 2,102 9.7 -12.9°
Maximum altitude 04:32:09 54° 140° (SE) 817 7.3 -13.5°
Drops below altitude 10° 04:36:51 10° 64° (ENE) 2,076 9.6 -14.1°
Sets 04:39:12 0° 60° (ENE) 2,969 10.5 -14.4°
